Moses Lake, WA

11:52 PM PST on February 22, 2017 (GMT -0800)
Grant County International

Weather History for KMWH - August, 2012

Change the Weather History Date:

Tuesday, August 14, 2012

  Actual Average Record
Temperature  
Mean Temperature 82 °F 72 °F  
Max Temperature 99 °F 89 °F 102 °F (2004)
Min Temperature 65 °F 56 °F 46 °F (1985)
Degree Days  
Heating Degree Days 0 0  
Month to date heating degree days 0 0  
Since 1 June heating degree days 92 63  
Since 1 July heating degree days 6 8  
Cooling Degree Days 17 8  
Month to date cooling degree days 174 120  
Year to date cooling degree days 566 474  
Since 1 June cooling degree days 539 449  
Growing Degree Days 32 (Base 50)    
Moisture  
Dew Point 44 °F    
Average Humidity 33    
Maximum Humidity 48    
Minimum Humidity 17    
Precipitation  
Precipitation 0.00 in 0.01 in 0.17 in (2014)
Month to date precipitation 0.00 0.11  
Year to date precipitation 5.58 5.29  
Sea Level Pressure  
Sea Level Pressure 29.78 in    
Wind  
Wind Speed 9 mph (SW)    
Max Wind Speed 18 mph    
Max Gust Speed 23 mph    
Visibility 9 miles    
Events      
T = Trace of Precipitation, MM = Missing Value Source: NWS Daily Summary

Daily Weather History Graph

Daily Weather History Graph

Search for Another Location

Airport or City:

Trip Planner

Search our weather history database for the weather conditions in past years. The results will help you decide how hot, cold, wet, or windy it might be!

Date:

Astronomy

Aug. 14, 2012 Rise Set
Actual Time 5:53 AM PDT 8:09 PM PDT
Civil Twilight 5:19 AM PDT 8:42 PM PDT
Nautical Twilight 4:37 AM PDT 9:24 PM PDT
Astronomical Twilight 3:50 AM PDT 10:11 PM PDT
Moon 2:49 AM PDT (8/14) 6:11 PM PDT (8/14)
Length of Visible Light 15h 22m
Length of Day
14h 15m
Waning Crescent, 9% of the Moon is Illuminated
Aug 14
Waning Crescent
Aug 17
New
Aug 24
First Quarter
Aug 31
Full
Sep 8
Last Quarter

Hourly Weather History & Observations

Time (PDT) Temp. Dew Point Humidity Pressure Visibility Wind Dir Wind Speed Gust Speed Precip Events Conditions
12:52 AM 73.9 °F 44.1 °F 34% 29.83 in 8.0 mi WSW 4.6 mph - N/A   Clear
1:52 AM 72.0 °F 43.0 °F 35% 29.82 in 8.0 mi WSW 4.6 mph - N/A   Clear
2:52 AM 66.2 °F 42.8 °F 43% 29.85 in 8.0 mi Calm Calm - N/A   Clear
3:52 AM 71.1 °F 35.1 °F 27% 29.83 in 9.0 mi WNW 6.9 mph - N/A   Clear
4:52 AM 73.0 °F 37.9 °F 28% 29.82 in 9.0 mi WSW 8.1 mph - N/A   Clear
5:52 AM 69.1 °F 45.0 °F 42% 29.83 in 7.0 mi SW 8.1 mph - N/A   Clear
6:52 AM 66.9 °F 46.9 °F 49% 29.84 in 7.0 mi SSE 3.5 mph - N/A   Clear
7:52 AM 73.0 °F 46.9 °F 39% 29.85 in 8.0 mi South 3.5 mph - N/A   Clear
8:52 AM 79.0 °F 44.1 °F 29% 29.85 in 9.0 mi South 4.6 mph - N/A   Clear
9:52 AM 82.9 °F 45.0 °F 26% 29.84 in 9.0 mi SE 6.9 mph - N/A   Clear
10:52 AM 87.1 °F 42.1 °F 21% 29.82 in 10.0 mi South 6.9 mph - N/A   Clear
11:52 AM 91.9 °F 43.0 °F 18% 29.80 in 10.0 mi South 11.5 mph - N/A   Clear
12:52 PM 93.0 °F 45.0 °F 19% 29.78 in 10.0 mi SSW 11.5 mph - N/A   Clear
1:52 PM 95.0 °F 46.0 °F 19% 29.76 in 10.0 mi SSW 11.5 mph 20.7 mph N/A   Clear
2:52 PM 96.1 °F 45.0 °F 17% 29.75 in 10.0 mi SSW 11.5 mph - N/A   Clear
3:52 PM 97.0 °F 46.9 °F 18% 29.72 in 10.0 mi SW 13.8 mph - N/A   Clear
4:52 PM 98.1 °F 48.9 °F 19% 29.70 in 10.0 mi SSW 10.4 mph - N/A   Clear
5:52 PM 96.1 °F 48.0 °F 19% 29.69 in 10.0 mi WSW 11.5 mph - N/A   Clear
6:52 PM 93.9 °F 48.0 °F 21% 29.68 in 10.0 mi West 13.8 mph - N/A   Clear
7:52 PM 90.0 °F 42.1 °F 19% 29.69 in 10.0 mi WNW 10.4 mph - N/A   Clear
8:52 PM 84.0 °F 45.0 °F 25% 29.71 in 10.0 mi NW 10.4 mph - N/A   Clear
9:52 PM 82.9 °F 45.0 °F 26% 29.73 in 10.0 mi NW 15.0 mph 20.7 mph N/A   Clear
10:52 PM 80.1 °F 44.1 °F 28% 29.75 in 10.0 mi North 13.8 mph - N/A   Clear
11:52 PM 78.1 °F 46.9 °F 33% 29.78 in 10.0 mi North 15.0 mph - N/A   Clear